Weather in Etten-Leur

Netherlands     51°34′00″N   4°38′26″E
temp.,
°C
wind,
m/s
gust,
m/s
humid.,
%
clouds,
%
prec.,
mm/h
press.,
hPa
HPBL,
m
26 june, sun
sun2623:00+15s2396100 0.9 101275
02:00+15sw3896100 1.1 1012349
05:00+13s369796 0.0 1013149
08:00+15ssw488898 0.0 1015399
11:00+18ssw5668100 0.0 1016838
14:00+21ssw4650100 0.0 10161564
17:00+22s3646100 0.0 10152088
20:00+19s3566100 0.0 1015155
27 june, mon
mon2723:00+16ssw1173100 0.0 101511
02:00+16se1181100 0.4 101511
05:00+15ssw2281100 0.0 101533
08:00+16ssw3579100 0.0 1016209
11:00+18ssw4671100 0.0 1016537
14:00+16nw3573100 0.5 1018345
17:00+21sw025194 0.4 10181328
20:00+18nw45647 0.4 1019465
28 june, tue
tue2823:00+15wnw126940 0.0 102118
02:00+13wsw22755 0.0 102123
05:00+11ssw33815 0.0 102141
08:00+15sw23700 0.0 1022231
11:00+20ssw34510 0.0 1021962
14:00+23ssw35410 0.0 10192078
17:00+25s243715 0.0 10182298
20:00+24se235285 0.0 101762
29 june, wed
wed2923:00+18sse33567 0.0 101733
02:00+17ssw33627 0.0 101627
05:00+15sse336585 0.0 101635
08:00+18s356589 0.0 1016183
11:00+23ssw3444100 0.0 1016758
14:00+26ssw35365 0.0 10152037
17:00+28ssw353125 0.0 10142399
20:00+25wsw2248100 0.0 101323
30 june, thu
thu3023:00+18nnw22671 0.0 101424
02:00+17ne22730 0.0 101320
05:00+16e11780 0.0 101211
08:00+20s11640 0.0 1012124
11:00+26se23445 0.0 1011732
14:00+30sse353430 0.0 10092373
17:00+28wnw5543100 0.0 10071038
20:00+18nw51094100 4.9 1008231